Location: Banios
(43.0451°N, 0.2335°E)
Time: 04:25:30
(UTC+00:00)

SJ-12 - Pass Details

Date: 25 January 2021
Orbit: 568 x 584 km, 97.7° (Epoch: 26 February)

Event Time Altitude Azimuth Distance (km) Brightness Sun altitude
Rises 04:49:39 0° 16° (NNE) 2,820 7.6 -27.6°
Reaches altitude 10° 04:51:52 10° 20° (NNE) 1,914 6.8 -27.2°
Maximum altitude 04:55:58 59° 100° (E) 679 4.4 -26.4°
Enters shadow 04:56:03 59° 106° (ESE) 680 4.4 -26.4°
